[[{"header":{"parameterUnit":"m.s-1","parameterCategory":1,"la1":30.2991,"la2":30.254,"lo1":-89.0895,"lo2":-89.0444,"dy":0.0017,"dx":0.0017,"nx":28,"ny":28,"refTime":"2024-08-04T09:00:00:Z","depth":0,"parameterNumber":2,"parameterNumberName":"U-component_of_WINDS"},"data":[0,0,0,0,0,0,0,0,0,0,0,0,0,0,0,0,0,0,0,0,0,0,0,0,0,0,0,0,0,0,0,0,0,0,0,0,0,0,0,0,0,0,0,0,0,0,0,0,0,0,0,0,0,0,0,0,0,0,0.9743,0.974,0,0.9419,0.9415,0.9412,0.9217,0.9216,0.9215,0.9215,0.8879,0.8871,0.8863,0,0,0,0,0,0,0,0,0,0,0,0,0,1.019,1.0183,0.9744,0.974,0.9736,0.942,0.9415,0.9411,0.9217,0.9216,0.9215,0.9214,0.8882,0.8872,0.8862,0,0,0,0,0,0,0,0,0,0,0,0,0,0.9944,1.0181,0.9744,0.9601,0.9585,0.9421,0.9415,0.941,0.9218,0.9216,0.9215,0.9214,0.8885,0.8873,0.8861,0.8813,0,0,0.8824,0.8819,0,0,0,0,0,0,0,0,0.9959,0.9928,0.9626,0.9611,0.9592,0.9357,0.9449,0.9209,0.9218,0.9357,0.9215,0.9213,0.9039,0.9014,0.8956,0.8797,0.8783,0.8823,0.8815,0.881,0.8807,0,0,0,0,0,0,0,0.9976,0.9941,0.9615,0.9622,0.9601,0.9551,0.9515,0.9403,0.9209,0.9345,0.933,0.9294,0.9029,0.8968,0.8947,0.8778,0.8823,0.8812,0.8805,0.88,0.8559,0.856,0,0,0,0,0,0,1.0016,0.9956,0.9625,0.9605,0.9776,0.9544,0.9504,0.9434,0.921,0.9175,0.9296,0.9287,0.899,0.8961,0.8934,0.8859,0.881,0.8799,0.8792,0.8559,0.856,0.8561,0,0,0,0,0,0,1.0027,0.9989,0.9638,0.9777,0.9728,0.9538,0.9462,0.9428,0.9367,0.9173,0.9137,0.9269,0.8987,0.8951,0.8844,0.8845,0.8793,0.8782,0.8557,0.8559,0.856,0.8713,0,0,0,0,0,0,1.004,0.9994,0.9974,0.9778,0.9722,0.9555,0.9462,0.9423,0.9347,0.9332,0.9138,0.9105,0.8984,0.8863,0.8832,0.8828,0.8773,0.8556,0.8558,0.856,0.8707,0.872,0.873,0,0,0,0,0,1.0057,1.003,0.9974,0.9936,0.9694,0.9556,0.9524,0.9385,0.9348,0.9326,0.9201,0.9111,0.8852,0.8854,0.8817,0.8809,0.8556,0.8558,0.856,0.8702,0.8717,0.873,0,0,0,0,0,0,1.023,1.0002,0.9937,0.9847,0.9723,0.9523,0.9491,0.9406,0.9289,0.9279,0.9112,0.907,0.8978,0.8883,0.889,0.8749,0.8693,0.8688,0.8814,0.8827,0.8838,0.8861,0.8763,0,0,0,0,0,1.0259,1.0167,0.9972,0.991,0.9852,0.9683,0.9618,0.9522,0.9386,0.9332,0.9199,0.9069,0.8957,0.8888,0.8775,0.8694,0.8647,0.867,0.8682,0.8693,0.8689,0.8635,0.8642,0.8567,0.8567,0.8567,0,0,1.0315,1.0179,1.0131,0.9942,0.9834,0.9741,0.964,0.9546,0.9474,0.9317,0.9206,0.9105,0.8949,0.8854,0.8806,0.8772,0.87,0.8695,0.8705,0.8695,0.8638,0.8646,0.8652,0.8569,0.8568,0.8568,0,0,1.0368,1.0258,1.0193,1.0088,0.9927,0.9815,0.98,0.9613,0.954,0.9427,0.9307,0.9219,0.9032,0.8924,0.8845,0.8859,0.8771,0.8827,0.8886,0.8837,0.8842,0.8847,0.8848,0.8851,0.8825,0.8825,0.8826,0,1.0458,1.0314,1.0171,1.0083,1.0002,0.9858,0.9789,0.9693,0.9504,0.945,0.9416,0.9176,0.9061,0.8937,0.8941,0.8883,0.8858,0.8846,0.8854,0.8856,0.8858,0.8857,0.8859,0.8833,0.8832,0.8831,0.8831,0,1.043,1.0333,1.03,1.0121,1.0036,0.996,0.9802,0.9734,0.9647,0.9538,0.9423,0.9281,0.9135,0.9099,0.9013,0.8962,0.8946,0.8886,0.8825,0.8876,0.8872,0.8871,0.8844,0.8841,0.8839,0.8837,0,0,1.0581,1.0325,1.0315,1.0231,1.0043,0.9963,0.9879,0.9738,0.9681,0.9555,0.9478,0.9323,0.9265,0.9176,0.9076,0.9033,0.9048,0.8976,0.897,0.8991,0.898,0.9024,0.9026,0.8991,0.899,0.899,0.8992,0,1.0604,1.0447,1.0315,1.0206,1.0112,0.9974,0.9899,0.9775,0.9672,0.9576,0.9461,0.9352,0.9286,0.923,0.9182,0.9057,0.9043,0.9056,0.8914,0.891,0.8953,0.9025,0.9071,0.908,0.899,0.899,0.8989,0,1.0609,1.049,1.0372,1.0192,1.0147,1.0084,0.9942,0.9853,0.9709,0.9636,0.9537,0.9433,0.9335,0.9288,0.9149,0.9161,0.9095,0.9025,0.9022,0.9,0.895,0.9001,0.908,0.908,0.8986,0.8987,0.8987,0,1.0727,1.0537,1.044,1.0374,1.0162,1.012,1.003,0.9884,0.9807,0.9684,0.9631,0.9499,0.9425,0.9323,0.9185,0.9164,0.906,0.9002,0.8993,0.8997,0.8974,0.8977,0.904,0.894,0.894,0.894,0.894,0,1.0764,1.0696,1.049,1.0431,1.035,1.0199,1.0122,1.002,0.9892,0.9808,0.9681,0.9605,0.9429,0.9331,0.9223,0.9122,0.9091,0.9027,0.8998,0.9036,0.9044,0.8988,0.8982,0.894,0.894,0.894,0.894,0,1.088,1.074,1.0625,1.0435,1.0386,1.0334,1.017,1.0106,0.9996,0.9892,0.9858,0.9686,0.9563,0.9417,0.9248,0.9174,0.9082,0.9042,0.9131,0.9114,0.9113,0.9113,0.9138,0.9132,0.9042,0.9044,0.9044,0,1.0911,1.0855,1.066,1.0596,1.0509,1.0408,1.0328,1.0178,1.01,0.9931,0.9887,0.9756,0.9642,0.9453,0.9311,0.918,0.9133,0.9151,0.9112,0.9151,0.9128,0.9131,0.9123,0.916,0.9162,0.9163,0.9164,0,1.0979,1.0913,1.0805,1.0672,1.0582,1.047,1.0352,1.0306,1.0131,1.005,0.9924,0.9837,0.9664,0.9533,0.9385,0.9289,0.9196,0.9178,0.9168,0.9204,0.9257,0.9224,0.9155,0.9177,0.9176,0.9175,0.9174,0.9174,1.105,1.0993,1.0847,1.073,1.0626,1.0519,1.0449,1.0331,1.0224,1.0072,0.999,0.9865,0.972,0.951,0.9419,0.9317,0.9285,0.9272,0.9268,0.9266,0.9275,0.9277,0.929,0.929,0.9289,0.9289,0.9288,0,1.1108,1.1008,1.0902,1.0742,1.065,1.0574,1.0439,1.0366,1.0259,1.0132,1.0024,0.9878,0.9751,0.96,0.9462,0.941,0.9364,0.9379,0.9379,0.9358,0.9314,0.9335,0.9418,0.9418,0.9418,0.9418,0.9418,0.9418,1.1127,1.1027,1.0943,1.0789,1.0687,1.0566,1.0495,1.0395,1.0292,1.0136,1.0031,0.9934,0.9796,0.9647,0.9527,0.9485,0.9438,0.9465,0.9411,0.9373,0.9361,0.935,0.9368,0.9458,0.9458,0.9461,0.9462,0.9462]},{"header":{"parameterUnit":"m.s-1","parameterCategory":1,"la1":30.2991,"la2":30.254,"lo1":-89.0895,"lo2":-89.0444,"dy":0.0017,"dx":0.0017,"nx":28,"ny":28,"refTime":"2024-08-04T09:00:00:Z","depth":0,"parameterNumber":3,"parameterNumberName":"V-component_of_WINDS"},"data":[0,0,0,0,0,0,0,0,0,0,0,0,0,0,0,0,0,0,0,0,0,0,0,0,0,0,0,0,0,0,0,0,0,0,0,0,0,0,0,0,0,0,0,0,0,0,0,0,0,0,0,0,0,0,0,0,0,0,1.5557,1.5558,0,1.5689,1.569,1.5692,1.5727,1.5726,1.5725,1.5725,1.5854,1.5858,1.5862,0,0,0,0,0,0,0,0,0,0,0,0,0,1.5326,1.533,1.5557,1.5558,1.556,1.5688,1.569,1.5692,1.5727,1.5726,1.5725,1.5724,1.5853,1.5858,1.5863,0,0,0,0,0,0,0,0,0,0,0,0,0,1.5438,1.5331,1.5556,1.5593,1.5598,1.5688,1.569,1.5692,1.5727,1.5726,1.5725,1.5724,1.5851,1.5857,1.5863,1.5925,0,0,1.5882,1.5885,0,0,0,0,0,0,0,0,1.5432,1.5447,1.5586,1.5591,1.5596,1.569,1.5656,1.577,1.5727,1.5678,1.5724,1.5723,1.58,1.581,1.5837,1.5931,1.5936,1.5883,1.5887,1.5889,1.5891,0,0,0,0,0,0,0,1.5424,1.5441,1.5609,1.5588,1.5594,1.56,1.5615,1.5678,1.5744,1.5682,1.5685,1.57,1.5802,1.5831,1.5841,1.5938,1.5883,1.5888,1.5892,1.5894,1.6082,1.6084,0,0,0,0,0,0,1.5411,1.5435,1.5605,1.5613,1.551,1.5605,1.5621,1.5661,1.5743,1.5755,1.5701,1.5701,1.5821,1.5833,1.5845,1.592,1.5889,1.5895,1.5899,1.6081,1.6083,1.6084,0,0,0,0,0,0,1.5406,1.5426,1.5599,1.5525,1.5547,1.561,1.5654,1.5664,1.5693,1.5758,1.5769,1.5719,1.5821,1.5837,1.5904,1.5925,1.5898,1.5904,1.608,1.6082,1.6083,1.6071,0,0,0,0,0,0,1.5399,1.5424,1.5451,1.5525,1.5551,1.5658,1.5656,1.5668,1.5705,1.5706,1.5778,1.5788,1.5821,1.5894,1.591,1.5933,1.5908,1.6078,1.6081,1.6083,1.6069,1.6072,1.6074,0,0,0,0,0,1.5391,1.5442,1.5452,1.5472,1.5586,1.566,1.5674,1.5713,1.5706,1.5732,1.5772,1.5786,1.592,1.5901,1.5919,1.5944,1.6077,1.608,1.6083,1.6068,1.6071,1.6074,0,0,0,0,0,0,1.5368,1.5453,1.5465,1.5542,1.5593,1.5666,1.57,1.5715,1.5769,1.5768,1.5811,1.5827,1.589,1.5924,1.5901,1.6005,1.5998,1.6005,1.5981,1.5984,1.5986,1.5977,1.5914,0,0,0,0,0,1.5372,1.5427,1.5497,1.5558,1.5583,1.5636,1.567,1.5695,1.5749,1.5771,1.5817,1.5867,1.5919,1.5954,1.6006,1.6074,1.6087,1.6099,1.6101,1.6103,1.6108,1.6141,1.6146,1.6093,1.6093,1.6093,0,0,1.5381,1.5433,1.5466,1.5554,1.5598,1.565,1.5655,1.5712,1.575,1.5779,1.5845,1.5879,1.5938,1.6004,1.6036,1.6034,1.6125,1.6106,1.6107,1.6111,1.6144,1.6149,1.6154,1.6095,1.6095,1.6095,0,0,1.5423,1.547,1.5525,1.5567,1.5631,1.5666,1.5678,1.5747,1.5771,1.5838,1.586,1.5904,1.5996,1.6035,1.6067,1.6118,1.6132,1.6134,1.6145,1.6177,1.6182,1.6185,1.6201,1.6206,1.6139,1.6139,1.6139,0,1.5425,1.5509,1.555,1.5605,1.5641,1.5669,1.5722,1.576,1.5838,1.586,1.5858,1.597,1.6011,1.6085,1.6097,1.6123,1.6136,1.6127,1.6178,1.6182,1.6186,1.6201,1.6207,1.6138,1.6138,1.6138,1.6138,0,1.5506,1.5563,1.5598,1.5673,1.5713,1.5767,1.5812,1.5847,1.5866,1.5899,1.5964,1.6014,1.6075,1.6094,1.6115,1.6169,1.6166,1.617,1.6164,1.6191,1.6205,1.6212,1.6138,1.6138,1.6138,1.6138,0,0,1.5541,1.5635,1.5647,1.5679,1.575,1.5794,1.5845,1.5906,1.5933,1.5984,1.6027,1.6101,1.6103,1.6139,1.6163,1.6192,1.6224,1.6192,1.6193,1.6194,1.6283,1.6279,1.6286,1.6233,1.6234,1.6235,1.6278,0,1.5591,1.5689,1.5724,1.5802,1.5852,1.5877,1.5922,1.5968,1.5999,1.6043,1.6076,1.6127,1.6128,1.6149,1.6178,1.6214,1.6242,1.6212,1.627,1.6271,1.6254,1.6294,1.6291,1.6329,1.6284,1.6285,1.6286,0,1.5664,1.5716,1.5799,1.5859,1.5882,1.5922,1.5978,1.6021,1.6071,1.6091,1.6129,1.615,1.6201,1.6191,1.6259,1.6237,1.6262,1.6283,1.6285,1.6292,1.628,1.63,1.6343,1.6348,1.6296,1.6295,1.6294,0,1.5677,1.5768,1.5829,1.5856,1.5929,1.5955,1.5986,1.6036,1.6068,1.6116,1.6136,1.6189,1.6217,1.6255,1.6288,1.6278,1.6351,1.6345,1.6367,1.6366,1.6382,1.638,1.6428,1.6399,1.6399,1.6399,1.6399,0,1.5729,1.5778,1.5835,1.5872,1.5926,1.5964,1.6016,1.6048,1.6091,1.6132,1.6156,1.6193,1.6234,1.6275,1.6301,1.6351,1.6364,1.6379,1.6385,1.6377,1.6375,1.6394,1.6392,1.6401,1.64,1.64,1.64,0,1.5754,1.5795,1.5862,1.5924,1.5941,1.5978,1.603,1.6064,1.6095,1.6145,1.6159,1.6206,1.6256,1.6292,1.6355,1.6372,1.6425,1.6432,1.6409,1.6412,1.6431,1.6428,1.6491,1.65,1.6467,1.6467,1.6467,0,1.5784,1.5823,1.5889,1.5918,1.5949,1.5997,1.603,1.6067,1.61,1.6157,1.6184,1.6235,1.6278,1.6354,1.6392,1.644,1.6447,1.6465,1.6454,1.6443,1.6445,1.6442,1.6444,1.6467,1.6467,1.6468,1.6468,0,1.5832,1.5849,1.5897,1.5951,1.5989,1.6033,1.6076,1.6098,1.6142,1.6177,1.6228,1.6261,1.6325,1.6374,1.6424,1.6452,1.6466,1.6471,1.6478,1.647,1.6454,1.646,1.6412,1.6469,1.6469,1.6469,1.6469,1.6469,1.5859,1.5893,1.5944,1.5995,1.6031,1.607,1.6105,1.6139,1.6183,1.6239,1.6257,1.6309,1.6353,1.6422,1.645,1.6489,1.6488,1.6499,1.6502,1.6504,1.6502,1.6448,1.6498,1.6498,1.6498,1.6498,1.6498,0,1.5906,1.5939,1.5986,1.6046,1.6085,1.6095,1.6143,1.6174,1.622,1.6261,1.6302,1.6358,1.6404,1.6444,1.6491,1.6514,1.6521,1.6525,1.6524,1.6529,1.6501,1.649,1.6518,1.6518,1.6518,1.6518,1.6518,1.6518,1.5935,1.5992,1.6014,1.6087,1.6119,1.6172,1.6197,1.6232,1.6264,1.6327,1.6366,1.6392,1.6431,1.648,1.6522,1.6532,1.6547,1.6549,1.6561,1.6534,1.6532,1.6529,1.6518,1.6553,1.6553,1.6585,1.6586,1.6586]}]]